カタログに戻る

GEESAT 5-02

運用中通信LEO
NORAD 65551·PAYLOAD·🇨🇳 China

打ち上げ Sep 8, 2025 から Yellow Sea Launch Area

Loading…

次のパス (今後24時間)

TLE

最新Source: Space-Track

元期: Sep 14, 2026, 06:14 UTC

1 65551U 25201B   26257.26034665  .00001128  00000-0  15958-3 0  9999
2 65551  49.9880 346.1178 0008134 305.9958  54.0226 14.84404735 55028

AllMySatでGEESAT 5-02をリアルタイム追跡

Download on the App Store